This demonstration page uses our WeatherBlox Daily Observations layout. Learn more.

Left ArrowRight Arrow

Hourly Observations for November 5, 2019

Temp ( °F °C ) Dew Point ( °F °C ) Humidity (%) Winds ( mph kmh ) Pressure ( in mb ) Visibility ( mi km ) Precip ( " mm )
12:11 am 00:11 Cloudy 55 12.8 41 5 59 59 NE 6 9 30.22 1023 10 16 0.00 0.00
12:36 am 00:36 Cloudy 54 12.2 42 5.6 64 64 NNE 5 7 30.21 1023 10 16 0.00 0.00
12:44 am 00:44 Cloudy 54 12.2 42 5.6 64 64 N 3 6 30.21 1023 10 16 0.00 0.00
12:53 am 00:53 Cloudy 54 12.2 42 5.6 64 64 NE 5 7 30.20 1023 10 16 0.00 0.00
1:53 am 01:53 Cloudy 55 12.8 42 5.6 62 62 NE 5 7 30.19 1023 10 16 0.00 0.00
2:53 am 02:53 Cloudy 55 12.8 42 5.6 62 62 NE 6 9 30.19 1022 10 16 0.00 0.00
3:53 am 03:53 Cloudy 55 12.8 42 5.6 62 62 NE 5 7 30.18 1022 10 16 0.00 0.00
4:53 am 04:53 Cloudy 55 12.8 43 6.1 64 64 NE 5 7 30.18 1022 10 16 0.00 0.00
5:43 am 05:43 Cloudy 54 12.2 43 6.1 67 67 NE 3 6 30.20 1023 10 16 0.00 0.00
5:53 am 05:53 Cloudy 54 12.2 43 6.1 67 67 NE 3 6 30.19 1022 10 16 0.00 0.00
6:53 am 06:53 Mostly Clear 53 11.7 43 6.1 69 69 Calm 30.20 1023 10 16 0.00 0.00
7:53 am 07:53 Mostly Cloudy 54 12.2 44 6.7 69 69 Calm 30.22 1023 10 16 0.00 0.00
8:45 am 08:45 Cloudy with Light Rain 56 13.3 43 6.1 62 62 Calm 30.23 1024 10 16 0.00 0.00
8:53 am 08:53 Cloudy with Light Rain 55 12.8 45 7.2 69 69 NE 8 13 30.21 1023 9 14 0.01 0.25
9:53 am 09:53 Cloudy 57 13.9 46 7.8 67 67 N 5 7 30.23 1024 10 16 0.00 0.00
10:53 am 10:53 Cloudy 59 15 46 7.8 62 62 N 5 7 30.23 1024 10 16 0.00 0.00
11:53 am 11:53 Cloudy 60 15.6 47 8.3 62 62 NNW 3 6 30.23 1024 10 16 0.00 0.00
12:53 pm 12:53 Cloudy 63 17.2 49 9.4 60 60 Calm 30.21 1023 10 16 0.00 0.00
1:02 pm 13:02 Cloudy 65 18.3 50 10 59 59 VRB 3 6 30.20 1023 10 16 0.00 0.00
1:53 pm 13:53 Partly Cloudy 67 19.4 52 11.1 59 59 NW 6 9 30.19 1022 10 16 0.00 0.00
2:53 pm 14:53 Partly Cloudy 68 20 52 11.1 57 57 N 7 11 30.18 1022 10 16 0.00 0.00
3:53 pm 15:53 Sunny 69 20.6 52 11.1 55 55 N 3 6 30.19 1022 10 16 0.00 0.00
4:53 pm 16:53 Sunny 68 20 48 8.9 49 49 NW 6 9 30.19 1023 10 16 0.00 0.00
5:53 pm 17:53 Clear 61 16.1 51 10.6 70 70 Calm 30.22 1023 10 16 0.00 0.00
6:53 pm 18:53 Clear 57 13.9 51 10.6 81 81 Calm 30.23 1024 10 16 0.00 0.00
7:53 pm 19:53 Clear 56 13.3 51 10.6 84 84 Calm 30.24 1024 10 16 0.00 0.00
8:53 pm 20:53 Clear 53 11.7 50 10 89 89 Calm 30.26 1025 9 14 0.00 0.00
9:53 pm 21:53 Clear 50 10 48 8.9 93 93 Calm 30.28 1025 7 11 0.00 0.00
10:53 pm 22:53 Clear 49 9.4 47 8.3 93 93 Calm 30.29 1026 8 13 0.00 0.00
11:53 pm 23:53 Clear 49 9.4 46 7.8 90 90 Calm 30.29 1026 10 16 0.00 0.00

Powered by AerisWeather